#timestamp,LO_Frequency,Hit 
1504443615.1,286047004.3,N
1504443635.8,286047001.5,N
1504443655.7,286047001.0,N
1504443675.5,286046999.1,N
1504443695.3,286046997.9,N
1504443715.2,286046993.3,P
1504443735.0,286046996.6,N
1504443735.9,286046996.6,N
1504443755.8,286046997.7,N
1504443775.6,286046997.1,N
1504443795.4,286047001.1,N
1504443815.2,286046998.1,N
1504443835.1,286046999.9,N
1504443836.0,286046999.9,N
1504443855.8,286047000.5,N
1504443875.6,286046998.5,N
1504443895.5,286046994.9,N
1504443915.3,286046996.8,N
1504443935.1,286046993.4,N
1504443955.9,286046994.4,N
1504443975.7,286046997.9,N
1504443995.5,286046994.6,N
1504444015.4,286046990.2,P
1504444035.2,286046990.1,N
1504444055.0,286046991.8,N
1504444055.9,286046991.8,N
1504444075.8,286046992.1,N
1504444095.6,286046993.6,N
1504444115.4,286046997.4,N
1504444135.3,286046993.3,N
1504444155.1,286046992.6,N
1504444156.0,286046992.6,P
1504444175.8,286046996.6,P
1504444195.7,286046997.3,N
1504444215.5,286046999.6,N
1504444235.3,286046997.7,N
1504444255.2,286046997.9,N
1504444275.9,286046996.6,N
1504444295.7,286046997.9,N
1504444315.6,286046997.8,N
1504444335.4,286046997.2,N
1504444355.2,286046996.8,N
1504444375.0,286046999.0,N
1504444375.9,286046999.0,N
1504444395.8,286047000.3,N
1504444415.6,286047002.0,N
1504444435.4,286047002.7,N
1504444455.3,286047002.8,N
1504444475.1,286047000.4,N
1504444495.8,286047002.2,N
1504444515.7,286047005.6,N
1504444535.5,286047006.8,N
1504444555.3,286047003.6,N
1504444575.2,286047004.4,N
1504444595.9,286047001.9,N
1504444615.7,286047004.3,N
1504444635.6,286047004.1,N
1504444655.4,286047001.3,N
1504444675.2,286047000.0,N
1504444695.0,286047001.4,N
1504444695.9,286047001.4,N
1504444715.8,286047000.2,N
1504444735.6,286046999.4,N
1504444755.4,286046998.3,N
1504444775.3,286046998.1,N
1504444795.1,286046998.3,N
1504444815.8,286046996.6,N
1504444835.7,286046997.2,N
1504444855.5,286046999.3,N
1504444875.3,286046998.6,N
1504444895.2,286046996.9,N
1504444915.9,286046997.5,N
1504444935.7,286046997.6,N
1504444955.6,286047000.7,N
1504444975.4,286047000.5,N
1504444995.2,286047002.5,N
1504445015.0,286047000.3,N
1504445015.9,286047000.3,N
1504445035.8,286047001.9,N
1504445055.6,286047000.6,N
1504445075.4,286047000.3,N
1504445095.3,286047000.1,N
1504445115.1,286047002.7,N
1504445135.8,286047000.6,N
1504445155.7,286047000.7,N
1504445175.5,286046999.9,N
1504445195.3,286046999.9,N
1504445215.2,286047000.9,N
1504445235.9,286046998.5,N
1504445255.7,286046998.5,N
1504445275.5,286047000.4,N
1504445295.4,286047000.4,N
1504445315.2,286047000.5,N
1504445335.0,286047000.9,N
1504445335.9,286047000.9,N
1504445355.8,286047000.5,N
1504445375.6,286047002.6,N
1504445395.4,286047002.6,N
1504445415.3,286046999.9,N
1504445435.1,286046999.8,N
1504445455.8,286047004.4,P
1504445475.7,286047000.6,N
1504445495.5,286046999.8,N
1504445515.3,286047001.2,N
1504445535.2,286047000.7,N
1504445555.9,286047000.5,N
1504445575.7,286047000.3,N
1504445595.6,286047003.8,N
1504445615.4,286047004.1,N
1504445635.2,286047001.4,N
1504445655.1,286047000.1,N
1504445656.0,286047000.1,N
1504445675.8,286047000.0,N
1504445695.6,286047000.0,N
1504445715.5,286047002.2,N
1504445735.3,286047003.4,N
1504445755.1,286047004.3,N
1504445775.8,286047002.5,N
1504445795.7,286047004.1,N
1504445815.5,286047001.6,N
1504445835.3,286047002.2,N
1504445855.2,286047003.3,N
1504445875.9,286047004.3,N
1504445895.7,286047003.9,N
1504445915.6,286047001.9,N
1504445935.4,286047003.2,N
1504445955.2,286047005.0,P
1504445975.1,286047006.0,P
1504445976.0,286047006.0,P
1504445995.8,286047003.0,N
1504446015.6,286047003.3,N
1504446035.5,286047002.8,N
1504446055.3,286047001.3,N
1504446075.1,286047002.4,N
1504446095.9,286047000.3,N
1504446115.7,286046999.0,N
1504446135.5,286047000.2,N
1504446155.3,286047001.4,N
1504446175.2,286047000.6,N
1504446195.0,286047002.8,N
1504446195.9,286047002.8,N
1504446215.7,286047003.8,N
1504446235.6,286047004.2,N
1504446255.4,286047002.0,N
1504446275.2,286046999.0,N
1504446295.1,286046998.2,N
1504446296.0,286046998.2,N
1504446315.8,286046999.1,N
1504446335.6,286046997.0,N
1504446355.5,286046998.9,N
1504446375.3,286046998.4,N
1504446395.1,286047000.5,N
1504446415.9,286047000.0,N
1504446435.7,286047000.5,N
1504446455.5,286046999.4,N
1504446475.3,286046998.2,N
1504446495.2,286046998.1,N
1504446515.0,286046998.8,N
1504446515.9,286046998.8,N
1504446535.7,286047000.7,N
1504446555.6,286047000.8,N
1504446575.4,286047001.8,N
1504446595.2,286047000.2,N
1504446615.1,286046999.4,N
1504446616.0,286046999.4,N
1504446635.8,286046998.4,N
1504446655.6,286047001.1,N
1504446675.5,286047001.2,N
1504446695.3,286046995.6,N
1504446715.1,286046996.1,N
1504446735.9,286046995.4,N
1504446755.7,286046995.2,N
1504446775.5,286046995.7,N
1504446795.4,286046995.9,N
1504446815.2,286046994.5,N
1504446835.0,286046994.0,P
1504446835.9,286046994.0,N
1504446855.8,286046993.6,P
1504446875.6,286046994.4,N
1504446895.4,286046995.3,N
1504446915.3,286046995.2,N
1504446935.1,286046997.4,N
1504446936.0,286046997.4,N
1504446955.8,286046996.7,N
1504446975.6,286046998.4,N
1504446995.5,286046998.8,N
1504447015.3,286046997.4,N
1504447035.1,286046999.5,N
1504447055.9,286046997.2,N
1504447075.7,286046997.4,N
1504447095.5,286046995.7,N
1504447115.4,286046994.4,P
1504447135.2,286046997.1,N
1504447155.0,286047001.2,N
1504447155.9,286047001.2,N
1504447175.8,286047000.2,N
1504447195.6,286046999.1,N
